Weather History for Lamoni, IA

Change the Weather History Date:

Saturday, February 11, 2012

  Actual Average Record
Temperature  
Mean Temperature 11 °F 27 °F  
Max Temperature 20 °F 36 °F 62 °F (1999)
Min Temperature 2 °F 18 °F -17 °F (1981)
Degree Days  
Heating Degree Days 54 38  
Month to date heating degree days 381 429  
Since 1 July heating degree days 3588 4121  
Cooling Degree Days 0 0  
Month to date cooling degree days 0 0  
Year to date cooling degree days 0 0  
Moisture  
Dew Point -2 °F    
Average Humidity 58    
Maximum Humidity 76    
Minimum Humidity 39    
Precipitation  
Precipitation 0.00 in 0.05 in 1.27 in (1999)
Month to date precipitation 0.90 0.53  
Year to date precipitation 1.16  
Sea Level Pressure  
Sea Level Pressure 30.67 in    
Wind  
Wind Speed 12 mph (NW)    
Max Wind Speed 21 mph    
Max Gust Speed 26 mph    
Visibility 10 miles    
Events      
T = Trace of Precipitation, MM = Missing Value Source: NWS Daily Summary

Daily Weather History Graph

Daily Weather History Graph

Search for Another Location

Airport:

Trip Planner

Search our weather history database for the weather conditions in past years. The results will help you decide how hot, cold, wet, or windy it might be!

Date:

Astronomy

Feb. 11, 2012 Rise Set
Actual Time 7:15 AM CST 5:45 PM CST
Civil Twilight 6:46 AM CST 6:13 PM CST
Nautical Twilight 6:14 AM CST 6:45 PM CST
Astronomical Twilight 5:42 AM CST 7:17 PM CST
Moon 10:36 PM CST (2/11) 8:56 AM CST (2/11)
Length of Visible Light 11h 26m
Length of Day
10h 30m
Waning Gibbous, 82% of the Moon is Illuminated
Feb 11
Waning Gibbous
Feb 14
Last Quarter
Feb 21
New
Feb 29
First Quarter
Mar 8
Full

Hourly Weather History & Observations

Time (CST) Temp. Windchill Dew Point Humidity Pressure Visibility Wind Dir Wind Speed Gust Speed Precip Events Conditions
12:53 AM 7.0 °F -9.1 °F -2.0 °F 67% 30.55 in 10.0 mi North 12.7 mph - N/A   Clear
1:53 AM 7.0 °F -9.1 °F -2.9 °F 64% 30.56 in 10.0 mi North 12.7 mph - N/A   Clear
2:53 AM 5.0 °F -11.6 °F -4.0 °F 66% 30.58 in 10.0 mi North 12.7 mph - N/A   Clear
3:53 AM 5.0 °F -10.8 °F -2.9 °F 70% 30.59 in 10.0 mi NNW 11.5 mph - N/A   Clear
4:53 AM 3.9 °F -12.2 °F -4.0 °F 70% 30.62 in 10.0 mi NNW 11.5 mph - N/A   Clear
5:53 AM 3.9 °F -11.3 °F -5.1 °F 66% 30.65 in 10.0 mi NNW 10.4 mph - N/A   Clear
6:53 AM 1.9 °F -14.7 °F -5.1 °F 72% 30.67 in 10.0 mi NW 11.5 mph - N/A   Clear
7:53 AM 3.0 °F -11.5 °F -5.1 °F 69% 30.70 in 10.0 mi NW 9.2 mph - N/A   Clear
8:53 AM 6.1 °F -8.7 °F -5.1 °F 60% 30.73 in 10.0 mi NW 10.4 mph - N/A   Clear
9:53 AM 10.0 °F -6.5 °F -4.0 °F 53% 30.75 in 10.0 mi NW 15.0 mph - N/A   Clear
10:53 AM 12.9 °F -1.6 °F -5.1 °F 45% 30.76 in 10.0 mi NNW 12.7 mph 19.6 mph N/A   Clear
11:53 AM 16.0 °F 2.3 °F -4.0 °F 41% 30.75 in 10.0 mi NW 12.7 mph - N/A   Clear
12:53 PM 18.0 °F 3.1 °F -2.9 °F 40% 30.73 in 10.0 mi NW 16.1 mph 24.2 mph N/A   Clear
1:53 PM 19.0 °F 4.0 °F -2.0 °F 40% 30.72 in 10.0 mi NNW 17.3 mph 23.0 mph N/A   Clear
2:53 PM 19.9 °F 5.7 °F -0.9 °F 40% 30.71 in 10.0 mi NW 16.1 mph - N/A   Clear
3:53 PM 19.0 °F 4.5 °F -0.9 °F 42% 30.71 in 10.0 mi WNW 16.1 mph - N/A   Clear
4:53 PM 17.1 °F 3.0 °F -0.0 °F 47% 30.70 in 10.0 mi NW 13.8 mph - N/A   Clear
5:53 PM 12.9 °F -1.6 °F -0.9 °F 54% 30.69 in 10.0 mi NW 12.7 mph - N/A   Clear
6:53 PM 10.9 °F -2.6 °F -0.0 °F 61% 30.69 in 10.0 mi WNW 10.4 mph - N/A   Clear
7:53 PM 9.0 °F -4.2 °F -0.0 °F 67% 30.68 in 10.0 mi WNW 9.2 mph - N/A   Clear
8:53 PM 8.1 °F -6.2 °F -0.9 °F 67% 30.68 in 10.0 mi WNW 10.4 mph - N/A   Clear
9:53 PM 8.1 °F -6.2 °F -0.9 °F 67% 30.68 in 10.0 mi West 10.4 mph - N/A   Clear
10:53 PM 7.0 °F -4.5 °F -0.0 °F 73% 30.64 in 10.0 mi NW 6.9 mph - N/A   Clear
11:53 PM 7.0 °F -5.7 °F -0.9 °F 70% 30.63 in 10.0 mi WNW 8.1 mph - N/A   Clear